www.pogodaiklimat.ru

Погода и климат >> Архив погоды >> Австралия >> Северная территория >> Аэропорт Грут-Айленд


ПОГОДА в Аэропорту Грут-Айленд

  • Прогноз погоды в Аэропорту Грут-Айленд
  • Монитор погоды в Аэропорту Грут-Айленд

АРХИВ ПОГОДЫ в Аэропорту Грут-Айленд

Время (UTC), дата Ветер
(напр.,м/с)
 
Видим.   Явления Облачность Т
(С)
Тd
(С)
f
(%)
Тe
(С)
Тes
(С)
Комфортность P
(гПа)
Po
(гПа)
Тmin
(С)
Tmax
(С)
R
(мм)
R24
(мм)
S
(см)
11 15.01 В 2 н/о н/о +28.7 +24.3 77 +40 +40 очень
душно
1007.3 1005.7
14 15.01 В 3 н/о н/о +27.7 +24.3 82 +39 +39 очень
душно
1007.9 1006.3
17 15.01 С 2 н/о н/о +26.8 +24.8 89 +38 +38 очень
душно
1006.6 1005.0
20 15.01 штиль 0 н/о н/о +25.2 +24.3 95 +35 +35 очень
душно
1006.3 1004.7
23 15.01 СВ 2 н/о н/о +30.8 +24.0 67 +42 +42 опасность
перегрева
1008.8 1007.2
02 16.01 СЗ 6 н/о н/о +31.9 +24.7 66 +45 +45 опасность
перегрева
1007.6 1006.0
05 16.01 Ю 2 н/о н/о +25.9 +23.2 85 +35 +35 очень
душно
1006.6 1005.0
08 16.01 В 7 н/о н/о +26.5 +24.3 88 +37 +37 очень
душно
1006.3 1004.7
11 16.01 В 1 н/о н/о +26.5 +25.6 95 +39 +39 очень
душно
1007.4 1005.8
14 16.01 штиль 0 н/о н/о +26.5 +25.8 96 +39 +39 очень
душно
1007.7 1006.1
17 16.01 СВ 2 н/о н/о +26.2 +25.7 97 +39 +39 очень
душно
1005.9 1004.3
20 16.01 В 2 н/о н/о +25.6 +25.1 97 +37 +37 очень
душно
1006.1 1004.5
23 16.01 В 2 н/о н/о +30.9 +25.7 74 +46 +46 опасность
перегрева
1007.9 1006.3
02 17.01 С 2 н/о н/о +30.8 +25.6 74 +45 +45 опасность
перегрева
1007.2 1005.6
05 17.01 Ю 3 н/о н/о +31.9 +25.2 68 +46 +46 опасность
перегрева
1004.8 1003.2
08 17.01 В 6 н/о н/о +31.4 +24.0 65 +43 +43 опасность
перегрева
1004.5 1002.9
11 17.01 В 4 н/о н/о +28.9 +25.1 80 +42 +42 опасность
перегрева
1006.6 1005.0
14 17.01 штиль 0 н/о н/о +27.5 +25.7 90 +41 +41 опасность
перегрева
1007.5 1005.9
17 17.01 Ю 1 н/о н/о +26.9 +25.7 93 +40 +40 очень
душно
1005.3 1003.7
20 17.01 В 2 н/о н/о +26.8 +25.9 95 +40 +40 очень
душно
1005.3 1003.7
23 17.01 В 4 н/о н/о +30.7 +25.5 74 +45 +45 опасность
перегрева
1007.2 1005.6
02 18.01 СВ 5 н/о н/о +33.9 +24.5 58 +47 +47 опасность
перегрева
1007.0 1005.4
05 18.01 СВ 5 н/о н/о +34.7 +24.0 54 +46 +46 опасность
перегрева
1005.0 1003.4
08 18.01 В 7 н/о н/о +29.7 +24.6 74 +42 +42 опасность
перегрева
1005.1 1003.5
11 18.01 В 2 н/о н/о +28.7 +25.7 84 +43 +43 опасность
перегрева
1007.5 1005.9
14 18.01 В 2 н/о н/о +27.6 +26.2 92 +42 +42 опасность
перегрева
1008.8 1007.2
17 18.01 штиль 0 н/о н/о +26.6 +25.6 94 +39 +39 очень
душно
1007.2 1005.6
20 18.01 В 2 н/о н/о +26.4 +25.5 95 +39 +39 очень
душно
1007.0 1005.4
23 18.01 СВ 4 н/о н/о +30.8 +24.9 71 +44 +44 опасность
перегрева
1008.9 1007.3
02 19.01 В 5 н/о н/о +34.6 +24.5 56 +47 +47 опасность
перегрева
1008.3 1006.7
05 19.01 В 5 н/о н/о +34.4 +24.3 56 +47 +47 опасность
перегрева
1006.5 1004.9
08 19.01 В 5 н/о н/о +32.4 +23.9 61 +44 +44 опасность
перегрева
1005.7 1004.1
11 19.01 В 2 н/о н/о +30.0 +25.1 75 +43 +43 опасность
перегрева
1008.4 1006.8
14 19.01 В 1 н/о н/о +28.6 +25.6 84 +42 +42 опасность
перегрева
1008.4 1006.8
17 19.01 штиль 0 н/о н/о +26.8 +25.6 93 +39 +39 очень
душно
1006.1 1004.5
20 19.01 штиль 0 н/о н/о +26.6 +25.7 95 +39 +39 очень
душно
1006.2 1004.6
23 19.01 В 6 н/о н/о +30.8 +25.2 72 +45 +45 опасность
перегрева
1008.1 1006.5
02 20.01 В 6 н/о н/о +33.4 +24.8 61 +47 +47 опасность
перегрева
1007.8 1006.2
05 20.01 В 5 н/о н/о +30.0 +26.2 80 +45 +45 опасность
перегрева
1005.9 1004.3
08 20.01 СВ 5 н/о н/о +30.2 +25.5 76 +44 +44 опасность
перегрева
1006.1 1004.5
11 20.01 штиль 0 н/о н/о +27.1 +26.2 95 +41 +41 опасность
перегрева
1008.2 1006.6
14 20.01 штиль 0 н/о н/о +27.0 +26.1 95 +41 +41 опасность
перегрева
1008.5 1006.9
17 20.01 В 2 н/о н/о +26.8 +25.9 95 +40 +40 очень
душно
1005.9 1004.3
20 20.01 ЮВ 2 н/о н/о +26.0 +25.5 97 +38 +38 очень
душно
1005.7 1004.1
23 20.01 В 2 н/о н/о +30.0 +26.0 79 +45 +45 опасность
перегрева
1007.4 1005.8
02 21.01 В 4 н/о н/о +28.4 +25.8 86 +42 +42 опасность
перегрева
1007.3 1005.7
05 21.01 ЮВ 3 н/о н/о +27.7 +26.1 91 +42 +42 опасность
перегрева
1006.8 1005.2
08 21.01 ЮВ 2 н/о н/о +30.0 +25.3 76 +44 +44 опасность
перегрева
1006.0 1004.4
11 21.01 штиль 0 н/о н/о +26.6 +25.7 95 +39 +39 очень
душно
1007.9 1006.3
14 21.01 штиль 0 н/о н/о +26.0 +25.3 96 +38 +38 очень
душно
1008.8 1007.2
17 21.01 штиль 0 н/о н/о +25.4 +24.9 97 +36 +36 очень
душно
1006.8 1005.2
20 21.01 В 2 н/о н/о +25.5 +25.2 98 +37 +37 очень
душно
1006.4 1004.8
23 21.01 В 4 н/о н/о +29.9 +26.1 80 +45 +45 опасность
перегрева
1008.1 1006.5
02 22.01 В 6 н/о н/о +31.0 +24.1 67 +43 +43 опасность
перегрева
1007.6 1006.0
05 22.01 С 3 н/о н/о +26.6 +25.6 94 +39 +39 очень
душно
1007.2 1005.6
08 22.01 ЮВ 3 н/о н/о +26.7 +25.8 95 +40 +40 очень
душно
1007.1 1005.5

 

Местоположение метеостанции Аэропорт Грут-Айленд (Северная территория, Австралия): широта -13.98 долгота 136.47 высота над уровнем моря 16 м.

В архиве по умолчанию представлена погода в Аэропорту Грут-Айленд за последнюю неделю. Архивные данные за месяц целиком и за предыдущие месяцы, начиная с января 2011 года, Вы можете получить, выбрав интересующий диапазон дат из раскрывающегося списка и нажав кнопку "Ввод!".


*Определитесь, кто Вы:
робот инопланетянин человек

Внимание! Время в таблицах - всемирное. Для получения местного времени необходимо прибавить поправку, которая равна 9.5 ч.

Смотрите также архив погоды в соседних городах и на ближайших метеорологических станциях:

Погода на Острове Северо-восточный (Северная территория, Австралия) (62 км)
Погода в Аэропорту Гоув (Северная территория, Австралия) (193 км)
Погода на Острове Центр (Северная территория, Австралия) (200 км)
Погода в Булман Уимол (Северная территория, Австралия) (234 км)
Погода в Борролооле (Северная территория, Австралия) (234 км)
Погода в Галивинку (Северная территория, Австралия) (241 км)
Погода в Милинджимби (Северная территория, Австралия) (268 км)
Погода в Аэропорту Макартур Ривер Майн (Северная территория, Австралия) (276 км)
Погода в Манингриде (Северная территория, Австралия) (324 км)
Погода на Мысе Уэссел (Северная территория, Австралия) (332 км)

Пояснения к столбцам:

Ветер - указаны скорость ветра в м/с - средняя за 10 мин, порывы в срок и между сроками (в фигурных скобках) и направление, откуда дует ветер: С - северный, СВ - северо-восточный, В - восточный, ЮВ - юго-восточный, Ю - южный, ЮЗ - юго-западный, З - западный, СЗ - северо-западный.
Видимость - горизонтальная дальность видимости в метрах или километрах. При видимости от 1 до 10 км при отсутствии осадков обычно наблюдается дымка, при ухудшении видимости до 1 км и менее - туман. В сухую погоду видимость может ухудшаться дымом, пылью или мглою.
Явления - указаны атмосферные явления, наблюдавшиеся в срок или в последний час перед сроком; фигурными скобками обозначены явления, наблюдавшиеся между сроками (за 1-3 часа до срока); квадратными скобками обозначены град или гололедные отложения с указанием их диаметра в мм.
Облачность - указаны через наклонную черту общая и нижняя облачность в баллах и высота нижней границы облаков в метрах; квадратными скобками обозначены формы облаков: Ci - перистые, Cs - перисто-слоистые, Cc - перисто-кучевые, Ac - высококучевые, As - высокослоистые, Sc - слоисто-кучевые, Ns - слоисто-дождевые, Cu - кучевые, Cb - кучево-дождевые. Подробнее классификацию облаков см. в Атласе облаков (PDF).
T - Температура воздуха - температура, измеренная на высоте 2 м над землей.
Td - Температура точки росы - температура, при понижении до которой содержащийся в воздухе водяной пар достигнет насыщения.
f - Относительная влажность воздуха - влажноcть воздуха, измеренная на высоте 2 м над землей.
Te - Эффективная температура - температура, которую ощущает одетый по сезону человек в тени. Характеристика душности погоды. При расчете учитывается влияние влажности воздуха и скорости ветра на теплоощущения человека.
Tes - Эффективная температура на солнце - температура, которую ощущает человек, с поправкой на солнечный нагрев. Характеристика знойности погоды. Зависит от высоты солнца над горизонтом, облачности и скорости ветра. Ночью, в пасмурную погоду, а также при ветре 12 м/с и более поправка равна нулю.
P - Атмосферное давление - приведенное к уровню моря атмосферное давление.
Po - Атмосферное давление - измеренное на уровне метеостанции атмосферное давление.
Tmin - Минимальная температура - минимум температуры воздуха на высоте 2 м над землей.
Tmax - Максимальная температура - максимум температуры воздуха на высоте 2 м над землей.
R - Количество осадков - Количество выпавших осадков за период времени, мм. При наведении курсора мыши на число - период времени, за который выпало указанное количество осадков.
R24 - Количество осадков - Количество выпавших осадков за 24 часа, мм.
S - Снежный покров - Высота снежного покрова, см. При наведении курсора мыши на число - состояние снежного покрова и степень покрытия местности в баллах.